Find PRAETORIAN SDA_521

NORAD ID: 100079 Int'l Des: 2026-163W Country: USA operational

Aktuelle Ansicht

3D-Globus wird geladen...

About PRAETORIAN SDA_521

PRAETORIAN SDA_521 (NORAD 100079) is a satellite of USA.

Nächste Überflüge

Passes for default location (London). Set your location on the main map for personalized predictions.

Höhenverlauf

Loading altitude history...

Zweizeiliger Elementsatz

1 A0079U 26206.56242656 .00000189 00000-0 15340-3 0 9992
2 A0079 81.4831 301.7496 0015853 187.8006 172.2908 13.85970271 1211
Epoch: 25. Juli 2026 • Age: 11 hours

Aktueller Status

Höhe 933.9 km
Apogäum / Perigäum N/A
Geschwindigkeit 7.39 km/s
Subsatellitenpunkt 12.40°N, 165.22°E
Typ other

Most Searched